Home   Weather   Crawley   Past weeks

Flag for United Kingdom Past Weather in Crawley, England, United Kingdom — Yesterday and Last 2 Weeks

59 °F

Partly sunny.

Feels Like: 57 °F
Forecast: 46 / 61 °F
Wind: 10 mph from West

Location: London / Gatwick Airport

Current Time: Oct 27, 2016 at 4:03:21 PM

Latest Report: Oct 27, 2016 at 3:20 PM

Visibility: N/A

Pressure: 30.48 "Hg

Humidity: 72%

Dew Point: 50 °F

Location of CrawleyLocation

Past Weather in Crawley — Graph


Crawley Temperature Yesterday

Maximum temperature yesterday: 59 °F (at 11:20 AM)
Minimum temperature yesterday: 46 °F (at 1:50 AM)
Average temperature yesterday: 54 °F

High & Low Weather Summary for the Past Weeks

High61 °F (Oct 15, 12:50 PM)100% (Oct 15, 7:20 AM)30.51 "Hg (Oct 15, 7:20 AM)
Low36 °F (Oct 23, 5:20 AM)58% (Oct 18, 4:50 PM)29.65 "Hg (Oct 14, 2:20 PM)
Average51 °F85%30.03 "Hg
* Reported Oct 12 2:20 PM — Oct 27 2:50 PM, Crawley, Weather by CustomWeather, © 2016

Note: Actual official high and low records may vary slightly from our data, if they occured in-between our weather recording intervals... More about our weather records


Crawley Weather History for the Previous 24 Hours

Scroll right to see more
Time TempWeatherWind HumidityBarometerVisibility
2:50 PM
Thu, Oct 27
59 °FScattered clouds.13 mph72%30.48 "HgN/A
2:20 PM59 °FScattered clouds.10 mph72%30.48 "HgN/A
1:50 PM59 °FPassing clouds.8 mph72%30.48 "HgN/A
1:20 PM59 °FScattered clouds.10 mph72%30.51 "HgN/A
12:50 PM57 °FScattered clouds.9 mph82%30.48 "HgN/A
12:20 PM55 °FPassing clouds.8 mph88%30.51 "HgN/A
11:50 AM54 °FSunny.8 mph94%30.51 "Hg10 mi
11:20 AM52 °FSunny.7 mph100%30.51 "Hg10 mi
10:50 AM52 °FPassing clouds.6 mph94%30.51 "Hg4 mi
10:20 AM50 °FFog.6 mph100%30.51 "Hg1 mi
9:50 AM48 °FFog.6 mph100%30.51 "Hg0 mi
9:20 AM48 °FFog.6 mph100%30.51 "Hg1 mi
8:50 AM48 °FFog.5 mph100%30.48 "Hg1 mi
8:20 AM48 °FFog.5 mph100%30.48 "Hg0 mi
7:50 AM48 °FFog.6 mph100%30.48 "Hg0 mi
7:20 AM48 °FFog.5 mph100%30.48 "Hg0 mi
6:50 AM48 °FFog.3 mph100%30.48 "Hg0 mi
6:20 AM50 °FFog.5 mph94%30.48 "Hg0 mi
5:50 AM50 °FFog.5 mph94%30.48 "Hg1 mi
5:20 AM50 °FFog.3 mph94%30.48 "Hg2 mi
4:50 AM50 °FFog.6 mph100%30.48 "Hg2 mi
4:20 AM50 °FFog.6 mph100%30.45 "Hg1 mi
3:50 AM50 °FFog.5 mph100%30.45 "Hg0 mi
3:20 AM50 °FFog.2 mph94%30.48 "Hg0 mi
2:50 AM50 °FFog.3 mph100%30.45 "Hg0 mi
2:20 AM50 °FFog.6 mph100%30.45 "Hg0 mi
1:50 AM50 °FFog.3 mph100%30.45 "Hg0 mi
1:20 AM50 °FFog.2 mph100%30.45 "Hg0 mi
12:50 AM48 °FFog.2 mph100%30.45 "Hg1 mi
12:20 AM48 °FFog.2 mph100%30.45 "Hg1 mi
11:50 PM
Wed, Oct 26
50 °FFog.3 mph100%30.45 "Hg3 mi
11:20 PM50 °FFog.3 mph100%30.45 "Hg3 mi
10:50 PM50 °FClear.No wind100%30.45 "Hg4 mi
10:20 PM50 °FClear.3 mph100%30.45 "Hg4 mi
9:50 PM50 °FClear.3 mph100%30.45 "Hg4 mi
9:20 PM52 °FClear.5 mph94%30.42 "Hg10 mi
8:50 PM52 °FPassing clouds.6 mph94%30.42 "HgN/A
8:20 PM54 °FPartly cloudy.3 mph88%30.42 "HgN/A
7:50 PM54 °FPassing clouds.5 mph88%30.42 "HgN/A
7:20 PM54 °FPassing clouds.5 mph88%30.42 "HgN/A
6:50 PM55 °FPassing clouds.6 mph88%30.39 "HgN/A
6:20 PM57 °FPassing clouds.5 mph82%30.39 "HgN/A
5:50 PM57 °FPassing clouds.6 mph82%30.39 "HgN/A
5:20 PM57 °FScattered clouds.5 mph82%30.39 "HgN/A
4:50 PM59 °FScattered clouds.8 mph77%30.36 "HgN/A
4:20 PM59 °FPassing clouds.7 mph77%30.36 "HgN/A
Weather by CustomWeather, © 2016

See weather overviewHow to use our weather pages